Location: Novokuznetsk
(53.7500°N, 87.1000°E)
Time: 13:41:44
(UTC+06:00)

ISS - Pass Details

Date: 20 July 2018
Orbit: 402 x 408 km, 51.6° (Epoch: 23 July)

Event Time Altitude Azimuth Distance (km) Brightness Sun altitude
Rises 00:00:13 0° 254° (WSW) 2,323 -0.1 -15.4°
Reaches altitude 10° 00:02:19 10° 250° (WSW) 1,465 -1.2 -15.4°
Maximum altitude 00:05:32 55° 171° (S) 495 -3.8 -15.4°
Drops below altitude 10° 00:08:46 10° 93° (E) 1,471 -1.1 -15.5°
Sets 00:10:53 0° 89° (E) 2,333 0.0 -15.5°
